This demonstration page uses our WeatherBlox Daily Observations layout. Learn more.

Left ArrowRight Arrow

Hourly Observations for April 24, 2022

Temp ( °F °C ) Dew Point ( °F °C ) Humidity (%) Winds ( mph kmh ) Pressure ( in mb ) Visibility ( mi km ) Precip ( " mm )
12:56 am 00:56 Clear 57 13.9 43 6.1 60 60 NNW 7 11 30.12 1020 10 16 0.00 0.00
1:53 am 01:53 Clear 52 11.1 44 6.7 75 75 N 3 6 30.12 1020 10 16 0.00 0.00
2:53 am 02:53 Clear 51 10.6 42 5.6 71 71 Calm 30.11 1020 10 16 0.00 0.00
3:53 am 03:53 Clear 50 10 39 3.9 66 66 NW 5 7 30.10 1019 10 16 0.00 0.00
4:53 am 04:53 Clear 53 11.7 37 2.8 55 55 N 6 9 30.10 1019 10 16 0.00 0.00
5:53 am 05:53 Clear 51 10.6 37 2.8 59 59 NNW 6 9 30.10 1019 10 16 0.00 0.00
6:53 am 06:53 Sunny 50 10 37 2.8 61 61 NW 6 9 30.10 1019 10 16 0.00 0.00
7:53 am 07:53 Sunny 57 13.9 38 3.3 49 49 N 5 7 30.11 1020 10 16 0.00 0.00
8:53 am 08:53 Sunny 61 16.1 39 3.9 44 44 NNW 7 11 30.11 1020 10 16 0.00 0.00
9:53 am 09:53 Sunny 67 19.4 37 2.8 33 33 N 6 9 30.10 1019 10 16 0.00 0.00
10:53 am 10:53 Sunny 70 21.1 36 2.2 29 29 N 9 15 30.10 1019 10 16 0.00 0.00
11:53 am 11:53 Sunny 73 22.8 35 1.7 25 25 VRB 3 6 30.09 1019 10 16 0.00 0.00
12:53 pm 12:53 Sunny 77 25 32 0 19 19 WNW 6 9 30.06 1018 10 16 0.00 0.00
1:53 pm 13:53 Sunny 78 25.6 25 -3.9 14 14 WNW 3 6 30.05 1018 10 16 0.00 0.00
2:53 pm 14:53 Sunny 79 26.1 27 -2.8 15 15 VRB 5 7 30.04 1017 10 16 0.00 0.00
3:53 pm 15:53 Sunny 80 26.7 32 0 17 17 Calm 30.02 1017 10 16 0.00 0.00
4:53 pm 16:53 Sunny 80 26.7 31 -0.6 17 17 Calm 30.00 1016 10 16 0.00 0.00
5:53 pm 17:53 Sunny 79 26.1 32 0 18 18 SSE 5 7 29.98 1015 10 16 0.00 0.00
6:53 pm 18:53 Sunny 77 25 36 2.2 23 23 SSE 7 11 29.98 1015 10 16 0.00 0.00
7:53 pm 19:53 Sunny 73 22.8 38 3.3 28 28 S 6 9 29.98 1015 10 16 0.00 0.00
8:53 pm 20:53 Partly Cloudy 68 20 39 3.9 35 35 SE 3 6 30.00 1016 10 16 0.00 0.00
9:53 pm 21:53 Clear 63 17.2 41 5 45 45 NNE 3 6 30.01 1016 10 16 0.00 0.00
10:53 pm 22:53 Clear 62 16.7 42 5.6 48 48 NNE 3 6 30.02 1017 10 16 0.00 0.00
11:53 pm 23:53 Clear 56 13.3 42 5.6 60 60 NW 3 6 30.02 1017 10 16 0.00 0.00

Powered by AerisWeather